CRYC Weather Reports


time (UTC)temp
C
wind
direction
speed
KPH
gust
KPH
rain 1hr
cm
rain 24hr
cm
rain mn
cm
humidity
%
barometer
mb
20260505191925 28 267 16.1 12.9 0.00 0.00 0.00
20260505190921 28 250 12.9 17.7 0.00 0.00 0.00
20260505185918 28 262 30.6 19.3 0.00 0.00 0.00
20260505184913 28 264 20.9 14.5 0.00 0.00 0.00
20260505183909 28 239 4.8 12.9 0.00 0.00 0.00
20260505182912 28 226 9.7 6.4 0.00 0.00 0.00
20260505181859 28 266 6.4 3.2 0.00 0.00 0.00
20260505180855 28 224 4.8 4.8 0.00 0.00 0.00
20260505174842 28 191 4.8 3.2 0.00 0.00 0.00
20260505173844 28 263 6.4 1.6 0.00 0.00 0.00
20260505172835 28 228 22.5 14.5 0.00 0.00 0.00
20260505171831 27 229 17.7 17.7 0.00 0.00 0.00
20260505170826 27 259 12.9 19.3 0.00 0.00 0.00
20260505165823 27 239 9.7 12.9 0.00 0.00 0.00
20260505164819 27 233 11.3 17.7 0.00 0.00 0.00
20260505163815 26 248 11.3 17.7 0.00 0.00 0.00
20260505162811 26 231 12.9 19.3 0.00 0.00 0.00
20260505161808 26 263 17.7 16.1 0.00 0.00 0.00
20260505160803 26 246 12.9 14.5 0.00 0.00 0.00
20260505151742 25 260 14.5 20.9 0.00 0.00 0.00
20260505150738 25 255 12.9 9.7 0.00 0.00 0.00
20260505124635 20 259 19.3 19.3 0.00 0.00 0.00
20260505123631 20 249 19.3 25.7 0.00 0.00 0.00
20260505122628 20 225 19.3 16.1 0.00 0.00 0.00
20260505121620 20 242 17.7 17.7 0.00 0.00 0.00
20260505120622 20 253 17.7 14.5 0.00 0.00 0.00
20260505115610 20 269 9.7 14.5 0.00 0.00 0.00
20260505114600 20 252 16.1 22.5 0.00 0.00 0.00
20260505113554 18 256 20.9 32.2 0.00 0.00 0.00
20260505112548 19 260 19.3 11.3 0.00 0.00 0.00
20260505111552 21 217 17.7 16.1 0.00 0.00 0.00
20260505110538 17 257 19.3 14.5 0.00 0.00 0.00
20260505101516 16 232 16.1 12.9 0.00 0.00 0.00
20260505100508 16 253 14.5 19.3 0.00 0.00 0.00
20260505095458 15 256 12.9 17.7 0.00 0.00 0.00
20260505094452 15 210 16.1 8.0 0.00 0.00 0.00
20260505093444 16 229 14.5 9.7 0.00 0.00 0.00
20260505091430 16 248 11.3 17.7 0.00 0.00 0.00
20260505090421 16 252 12.9 11.3 0.00 0.00 0.00
20260505085416 16 250 17.7 12.9 0.00 0.00 0.00
20260505084405 16 245 17.7 19.3 0.00 0.00 0.00
20260505083400 16 250 16.1 19.3 0.00 0.00 0.00
20260505081342 16 246 20.9 19.3 0.00 0.00 0.00
20260505080337 16 248 16.1 6.4 0.00 0.00 0.00
20260505075335 16 225 14.5 12.9 0.00 0.00 0.00
20260505074330 16 257 16.1 17.7 0.00 0.00 0.00
20260505073322 16 257 20.9 12.9 0.00 0.00 0.00
20260505071310 16 238 22.5 11.3 0.00 0.00 0.00
20260505070257 16 226 11.3 11.3 0.00 0.00 0.00
20260505065251 16 252 12.9 20.9 0.00 0.00 0.00
20260505064242 16 245 9.7 1.6 0.00 0.00 0.00
20260505063235 16 158 6.4 6.4 0.00 0.00 0.00
20260505062222 16 273 8.0 6.4 0.00 0.00 0.00
20260505061217 16 243 6.4 6.4 0.00 0.00 0.00
20260505060200 16 248 0.0 4.8 0.00 0.00 0.00
20260505055149 16 120 4.8 1.6 0.00 0.00 0.00
20260505054143 16 240 3.2 11.3 0.00 0.00 0.00
20260505053136 15 198 3.2 1.6 0.00 0.00 0.00
20260505052124 15 266 3.2 11.3 0.00 0.00 0.00
20260505051156 15 107 1.6 0.0 0.00 0.00 0.00
20260505051114 15 107 1.6 0.0 0.00 0.00 0.00
20260505050109 15 124 0.0 0.0 0.00 0.00 0.00
20260505041031 16 219 6.4 3.2 0.00 0.00 0.00
20260505035016 16 264 3.2 1.6 0.00 0.00 0.00
20260505034005 16 267 0.0 4.8 0.00 0.00 0.00
20260505032956 16 145 1.6 0.0 0.00 0.00 0.00
20260505031951 16 256 1.6 6.4 0.00 0.00 0.00
20260505030938 16 183 1.6 1.6 0.00 0.00 0.00
20260505025933 16 145 3.2 0.0 0.00 0.00 0.00
20260505024926 16 194 6.4 8.0 0.00 0.00 0.00
20260505023918 16 204 4.8 4.8 0.00 0.00 0.00
20260505022911 16 211 3.2 1.6 0.00 0.00 0.00
20260505021902 17 165 4.8 1.6 0.00 0.00 0.00
20260505020854 17 181 6.4 9.7 0.00 0.00 0.00
20260505015847 17 194 4.8 11.3 0.00 0.00 0.00
20260505014841 17 174 6.4 3.2 0.00 0.00 0.00
20260505013834 17 183 3.2 6.4 0.00 0.00 0.00
20260505012829 17 170 4.8 0.0 0.00 0.00 0.00
20260505011823 17 101 0.0 0.0 0.00 0.00 0.00
20260505010815 17 166 1.6 0.0 0.00 0.00 0.00
20260505005808 17 180 0.0 1.6 0.00 0.00 0.00
20260505004801 18 217 0.0 0.0 0.00 0.00 0.00
20260505003755 18 150 0.0 0.0 0.00 0.00 0.00
20260505002749 18 148 1.6 0.0 0.00 0.00 0.00
20260505001744 18 226 0.0 0.0 0.00 0.00 0.00
20260505000734 18 156 0.0 0.0 0.00 0.00 0.00
20260504235722 18 162 3.2 0.0 0.00 0.00 0.00
20260504234716 19 153 0.0 0.0 0.00 0.00 0.00
20260504233709 20 142 0.0 0.0 0.00 0.00 0.00
20260504232702 20 263 0.0 0.0 0.00 0.00 0.00
20260504231658 20 214 0.0 0.0 0.00 0.00 0.00
20260504230650 21 219 1.6 6.4 0.00 0.00 0.00
20260504225649 22 260 4.8 11.3 0.00 0.00 0.00
20260504224639 22 266 1.6 16.1 0.00 0.00 0.00
20260504223633 23 240 8.0 3.2 0.00 0.00 0.00
20260504222620 24 158 6.4 3.2 0.00 0.00 0.00
20260504221615 25 48 1.6 0.0 0.00 0.00 0.00
20260504215606 25 257 17.7 6.4 0.00 0.00 0.00
20260504214601 25 277 14.5 11.3 0.00 0.00 0.00
20260504213554 25 269 17.7 19.3 0.00 0.00 0.00
20260504212550 25 240 8.0 4.8 0.00 0.00 0.00
20260504211545 25 198 8.0 3.2 0.00 0.00 0.00
20260504210540 25 257 17.7 22.5 0.00 0.00 0.00
20260504205538 25 222 9.7 11.3 0.00 0.00 0.00
20260504204533 25 248 9.7 17.7 0.00 0.00 0.00
20260504203527 26 238 12.9 8.0 0.00 0.00 0.00
20260504202522 25 253 16.1 17.7 0.00 0.00 0.00
20260504201517 25 229 14.5 11.3 0.00 0.00 0.00
20260504200521 25 250 12.9 6.4 0.00 0.00 0.00
20260504195522 25 264 16.1 20.9 0.00 0.00 0.00
20260504194505 25 211 16.1 12.9 0.00 0.00 0.00
20260504193501 25 242 20.9 11.3 0.00 0.00 0.00
20260504192455 25 221 14.5 4.8 0.00 0.00 0.00